QPF
0.00 0.00 0.00 0.00 0.00 0.00 0.00 0.00 0.00 0.00 0.00 0.00 0.00 0.00 0.00 0.00 0.00 0.00 0.00 0.00 0.00 0.00 0.00 0.00 0.00 0.00 0.00 0.00 0.00 0.00 0.00 0.00 0.00 0.00 0.00 0.00 0.00 0.00 0.01 0.00 0.01 0.01 0.00
0.00 0.00 0.00 0.00 0.00 0.00 0.00 0.00 0.00 0.00 0.00 0.00 0.00 0.00 0.00 0.00 0.00 0.00 0.00 0.00 0.00 0.00 0.00 0.00 0.00 0.00 0.00 0.00 0.00 0.00 0.00 0.00 0.00 0.00 0.00 0.00 0.00 0.00 0.00 0.01 0.01 0.00 0.01
0.00 0.00 0.00 0.00 0.00 0.00 0.00 0.00 0.00 0.00 0.00 0.00 0.00 0.00 0.00 0.00 0.00 0.00 0.00 0.00 0.00 0.00 0.00 0.00 0.00 0.00 0.00 0.00 0.00 0.00 0.00 0.00 0.00 0.00 0.00 0.00 0.00 0.00 0.00 0.00 0.01 0.00 0.00
0.00 0.00 0.00 0.00 0.00 0.00 0.00 0.00 0.00 0.00 0.00 0.00 0.00 0.00 0.00 0.00 0.00 0.00 0.00 0.00 0.00 0.00 0.00 0.00 0.00 0.00 0.00 0.00 0.00 0.00 0.00 0.00 0.00 0.00 0.00 0.00 0.00 0.00 0.00 0.00 0.00 0.00 0.00
0.00 0.00 0.00 0.00 0.00 0.00 0.00 0.00 0.00 0.00 0.00 0.00 0.00 0.00 0.00 0.00 0.00 0.00 0.00 0.00 0.00 0.00 0.00 0.00 0.00 0.00 0.00 0.00 0.00 0.00 0.00 0.00 0.00 0.00 0.00 0.00 0.00 0.00 0.00 0.00 0.00 0.00 0.00
0.00 0.00 0.00 0.00 0.00 0.00 0.00 0.00 0.00 0.00 0.00 0.00 0.00 0.00 0.00 0.00 0.00 0.00 0.00 0.00 0.00 0.00 0.00 0.00 0.00 0.00 0.00 0.00 0.00 0.00 0.00 0.00 0.00 0.00 0.00 0.00 0.00 0.00 0.00 0.00 0.00 0.00 0.00
0.00 0.00 0.00 0.00 0.00 0.00 0.00 0.00 0.00 0.00 0.00 0.00 0.00 0.00 0.00 0.00 0.00 0.00 0.00 0.00 0.00 0.00 0.00 0.00 0.00 0.00 0.00 0.00 0.00 0.00 0.00 0.00 0.00 0.00 0.00 0.00 0.00 0.00 0.00 0.00 0.00 0.00 0.00
0.00 0.00 0.00 0.00 0.00 0.00 0.00 0.00 0.00 0.00 0.00 0.00 0.00 0.00 0.00 0.00 0.00 0.00 0.00 0.00 0.00 0.00 0.00 0.00 0.00 0.00 0.00 0.00 0.00 0.00 0.00 0.00 0.00 0.00 0.00 0.00 0.00 0.00 0.00 0.00 0.00 0.00 0.00
0.00 0.00 0.00 0.00 0.00 0.00 0.00 0.00 0.00 0.00 0.00 0.00 0.00 0.00 0.00 0.00 0.00 0.00 0.00 0.00 0.00 0.00 0.00 0.00 0.00 0.00 0.00 0.00 0.00 0.00 0.00 0.00 0.00 0.00 0.00 0.00 0.00 0.00 0.00 0.00 0.00 0.00 0.00
0.00 0.00 0.00 0.00 0.00 0.00 0.00 0.00 0.00 0.00 0.00 0.00 0.00 0.00 0.00 0.00 0.00 0.00 0.00 0.00 0.00 0.00 0.00 0.00 0.00 0.00 0.00 0.00 0.00 0.00 0.00 0.00 0.00 0.00 0.00 0.00 0.00 0.00 0.00 0.00 0.00 0.00 0.00
0.00 0.00 0.00 0.00 0.00 0.00 0.00 0.00 0.00 0.00 0.00 0.00 0.00 0.00 0.00 0.00 0.00 0.00 0.00 0.00 0.00 0.00 0.00 0.00 0.00 0.00 0.00 0.00 0.00 0.00 0.00 0.00 0.00 0.00 0.00 0.00 0.00 0.00 0.00 0.00 0.00 0.00 0.00
0.00 0.00 0.00 0.00 0.00 0.00 0.00 0.00 0.00 0.00 0.00 0.00 0.00 0.00 0.00 0.00 0.00 0.00 0.00 0.00 0.00 0.00 0.00 0.00 0.00 0.00 0.00 0.00 0.00 0.00 0.00 0.00 0.00 0.00 0.00 0.00 0.00 0.00 0.00 0.00 0.00 0.00 0.00
0.00 0.00 0.00 0.00 0.00 0.00 0.00 0.00 0.00 0.00 0.00 0.00 0.00 0.00 0.00 0.00 0.00 0.00 0.00 0.00 0.00 0.00 0.00 0.00 0.00 0.00 0.00 0.00 0.00 0.00 0.00 0.00 0.00 0.00 0.00 0.00 0.00 0.00 0.00 0.00 0.00 0.00 0.00
0.00 0.00 0.00 0.00 0.00 0.00 0.00 0.00 0.00 0.00 0.00 0.00 0.00 0.00 0.00 0.00 0.00 0.00 0.00 0.00 0.00 0.00 0.00 0.00 0.00 0.00 0.00 0.00 0.00 0.00 0.00 0.00 0.00 0.00 0.00 0.00 0.00 0.00 0.00 0.00 0.00 0.00 0.00
0.00 0.00 0.00 0.00 0.00 0.00 0.00 0.00 0.00 0.00 0.00 0.00 0.00 0.00 0.00 0.00 0.00 0.00 0.00 0.00 0.00 0.00 0.00 0.00 0.00 0.00 0.00 0.00 0.00 0.00 0.00 0.00 0.00 0.00 0.00 0.00 0.00 0.00 0.00 0.00 0.00 0.00 0.00
0.00 0.00 0.00 0.00 0.00 0.00 0.00 0.00 0.00 0.00 0.00 0.00 0.00 0.00 0.00 0.00 0.00 0.00 0.00 0.00 0.00 0.00 0.00 0.00 0.00 0.00 0.00 0.00 0.00 0.00 0.00 0.00 0.00 0.00 0.00 0.00 0.00 0.00 0.00 0.00 0.00 0.00 0.00
0.00 0.00 0.00 0.00 0.00 0.00 0.00 0.00 0.00 0.00 0.00 0.00 0.00 0.00 0.00 0.00 0.00 0.00 0.00 0.00 0.00 0.00 0.00 0.00 0.00 0.00 0.00 0.00 0.00 0.00 0.00 0.00 0.00 0.00 0.00 0.00 0.00 0.00 0.00 0.00 0.00 0.00 0.00
0.00 0.00 0.00 0.00 0.00 0.00 0.00 0.00 0.00 0.00 0.00 0.00 0.00 0.00 0.00 0.00 0.00 0.00 0.00 0.00 0.00 0.00 0.00 0.00 0.00 0.00 0.00 0.00 0.00 0.00 0.00 0.00 0.00 0.00 0.00 0.00 0.00 0.00 0.00 0.00 0.00 0.00 0.00
0.00 0.00 0.00 0.00 0.00 0.00 0.00 0.00 0.00 0.00 0.00 0.00 0.00 0.00 0.00 0.00 0.00 0.00 0.00 0.00 0.00 0.00 0.00 0.00 0.00 0.00 0.00 0.00 0.00 0.00 0.00 0.00 0.00 0.00 0.00 0.00 0.00 0.00 0.00 0.00 0.00 0.00 0.00
0.00 0.00 0.00 0.00 0.00 0.00 0.00 0.00 0.00 0.00 0.00 0.00 0.00 0.00 0.00 0.00 0.00 0.00 0.00 0.00 0.00 0.00 0.00 0.00 0.00 0.00 0.00 0.00 0.00 0.00 0.00 0.00 0.00 0.00 0.00 0.00 0.00 0.00 0.00 0.00 0.00 0.00 0.00
0.00 0.00 0.00 0.00 0.00 0.00 0.00 0.00 0.00 0.00 0.00 0.00 0.00 0.00 0.00 0.00 0.00 0.00 0.00 0.00 0.00 0.00 0.00 0.00 0.00 0.00 0.00 0.00 0.00 0.00 0.00 0.00 0.00 0.00 0.00 0.00 0.00 0.00 0.00 0.00 0.00 0.00 0.00
0.00 0.00 0.00 0.00 0.00 0.00 0.00 0.00 0.00 0.00 0.00 0.00 0.00 0.00 0.00 0.00 0.00 0.00 0.00 0.00 0.00 0.00 0.00 0.00 0.00 0.00 0.00 0.00 0.00 0.00 0.00 0.00 0.00 0.00 0.00 0.00 0.00 0.00 0.00 0.00 0.00 0.00 0.00
0.00 0.00 0.00 0.00 0.00 0.00 0.00 0.00 0.00 0.00 0.00 0.00 0.00 0.00 0.00 0.00 0.00 0.00 0.00 0.00 0.00 0.00 0.00 0.00 0.00 0.00 0.00 0.00 0.00 0.00 0.00 0.00 0.00 0.00 0.00 0.00 0.00 0.00 0.00 0.00 0.00 0.00 0.00
0.00 0.00 0.00 0.00 0.00 0.00 0.00 0.00 0.00 0.00 0.00 0.00 0.00 0.00 0.00 0.00 0.00 0.00 0.00 0.00 0.00 0.00 0.00 0.00 0.00 0.00 0.00 0.00 0.00 0.00 0.00 0.00 0.00 0.00 0.00 0.00 0.00 0.00 0.00 0.00 0.00 0.00 0.00
0.00 0.00 0.00 0.00 0.00 0.00 0.00 0.00 0.00 0.00 0.00 0.00 0.00 0.00 0.00 0.00 0.00 0.00 0.00 0.00 0.00 0.00 0.00 0.00 0.00 0.00 0.00 0.00 0.00 0.00 0.00 0.00 0.00 0.00 0.00 0.00 0.00 0.00 0.00 0.00 0.00 0.00 0.00
0.00 0.00 0.00 0.00 0.00 0.00 0.00 0.00 0.00 0.00 0.00 0.00 0.00 0.00 0.00 0.00 0.00 0.00 0.00 0.00 0.00 0.00 0.00 0.00 0.00 0.00 0.00 0.00 0.00 0.00 0.00 0.00 0.00 0.00 0.00 0.00 0.00 0.00 0.00 0.00 0.00 0.00 0.00
MSLP
1020.41 1020.38 1020.32 1020.39 1020.54 1020.73 1020.92 1021.11 1021.04 1021.06 1020.97 1020.91 1020.77 1020.70 1020.57 1020.55 1020.80 1020.75 1020.58 1020.39 1020.62 1020.55 1020.48 1020.59 1020.29 1020.19 1019.72 1019.66 1019.60 1019.62 1019.16 1018.65 1017.53 1016.19 1015.93 1014.95 1014.26 1013.32 1012.36 1011.30 1010.22 1009.02 1008.24
1020.81 1020.93 1020.97 1021.12 1021.26 1021.38 1021.51 1021.52 1021.53 1021.61 1021.45 1021.23 1021.02 1021.06 1021.23 1021.38 1021.19 1021.11 1021.28 1021.21 1021.17 1020.93 1021.07 1020.83 1020.84 1020.79 1020.47 1020.44 1019.92 1019.75 1019.77 1019.46 1018.68 1016.81 1016.39 1015.56 1014.97 1014.18 1013.07 1011.87 1010.81 1009.73 1008.80
1021.13 1021.44 1021.56 1021.75 1021.85 1021.91 1021.84 1022.06 1021.97 1022.06 1022.06 1021.85 1021.66 1021.53 1021.83 1021.90 1021.83 1022.02 1021.77 1021.79 1021.73 1021.51 1021.63 1021.41 1021.36 1021.25 1021.29 1021.02 1020.45 1020.46 1019.98 1019.73 1019.27 1018.16 1016.52 1015.82 1015.05 1014.15 1012.83 1012.15 1011.36 1010.25 1009.44
1021.46 1021.86 1022.19 1022.29 1022.33 1022.36 1022.40 1022.40 1022.25 1022.21 1022.09 1022.26 1022.26 1022.03 1022.04 1022.33 1022.29 1022.40 1022.44 1022.29 1022.22 1022.08 1022.04 1022.05 1022.15 1021.81 1021.83 1021.26 1021.01 1020.79 1020.31 1019.83 1019.21 1018.55 1017.35 1016.32 1015.68 1014.51 1013.70 1012.37 1010.38 1010.24 1009.25
1021.80 1022.04 1022.33 1022.54 1022.82 1022.72 1022.61 1022.82 1022.83 1022.60 1022.59 1022.58 1022.71 1022.56 1022.51 1022.42 1022.91 1022.62 1022.90 1022.83 1022.68 1022.66 1022.53 1022.44 1022.31 1022.46 1022.16 1021.81 1021.56 1020.95 1020.43 1019.91 1019.62 1018.77 1017.93 1016.91 1016.12 1015.12 1014.54 1013.49 1012.22 1010.70 1009.40
1021.83 1022.14 1022.34 1022.56 1022.82 1022.95 1022.91 1022.88 1022.96 1023.08 1023.24 1023.27 1023.00 1022.98 1023.07 1023.06 1023.09 1022.93 1023.07 1023.20 1023.00 1023.14 1022.95 1022.77 1022.65 1022.63 1022.45 1022.12 1021.61 1021.32 1020.97 1020.24 1020.05 1019.41 1018.45 1017.47 1016.74 1016.15 1015.08 1014.31 1013.16 1011.42 1009.08
1021.82 1022.24 1022.46 1022.64 1023.02 1023.47 1023.36 1023.30 1023.40 1023.32 1023.46 1023.78 1023.72 1023.65 1023.67 1023.56 1023.46 1023.42 1023.38 1023.58 1023.37 1023.50 1023.38 1023.24 1022.85 1022.82 1022.69 1021.92 1021.43 1021.18 1020.89 1020.64 1020.47 1019.86 1019.29 1018.84 1017.59 1016.98 1015.75 1014.22 1013.13 1012.00 1010.40
1021.78 1022.34 1022.79 1022.95 1023.25 1023.61 1023.67 1023.54 1023.60 1023.62 1023.73 1024.24 1024.54 1024.40 1024.08 1024.06 1023.77 1023.69 1023.81 1023.85 1023.67 1023.82 1023.71 1023.52 1023.36 1023.12 1022.43 1021.64 1021.17 1021.05 1020.97 1020.67 1020.36 1020.27 1020.12 1019.16 1018.36 1017.08 1016.23 1014.74 1013.09 1011.18 1009.46
1021.92 1022.34 1022.72 1022.81 1023.39 1023.80 1023.87 1024.01 1024.01 1023.93 1023.80 1024.16 1024.68 1024.56 1024.39 1024.46 1024.23 1023.83 1024.00 1023.86 1023.83 1023.90 1023.76 1023.67 1023.45 1022.97 1022.17 1021.49 1021.37 1021.23 1021.21 1020.85 1020.55 1020.31 1019.77 1018.92 1017.98 1017.14 1016.36 1015.20 1013.80 1012.40 1010.07
1021.65 1022.14 1022.50 1023.01 1023.14 1023.70 1024.13 1024.01 1024.14 1023.93 1024.01 1024.61 1024.75 1024.51 1024.66 1024.94 1024.58 1024.09 1023.98 1024.04 1023.92 1024.05 1023.97 1023.67 1023.11 1022.75 1022.39 1022.07 1021.82 1021.73 1021.21 1020.71 1020.43 1019.85 1019.42 1018.63 1017.84 1016.99 1016.29 1015.87 1015.05 1013.91 1012.07
1021.80 1022.52 1022.91 1023.51 1023.70 1023.65 1024.24 1024.46 1024.15 1023.97 1024.65 1024.57 1024.70 1024.68 1024.87 1024.99 1024.90 1024.49 1024.19 1024.09 1024.04 1024.38 1024.14 1023.75 1023.57 1023.08 1022.69 1022.44 1022.19 1022.17 1021.58 1020.94 1020.77 1020.57 1020.01 1019.02 1018.09 1017.18 1016.28 1015.64 1015.13 1014.42 1012.83
1022.05 1022.86 1023.42 1023.72 1023.67 1024.33 1024.26 1024.06 1024.16 1024.64 1024.76 1024.81 1024.80 1024.91 1025.21 1025.27 1025.05 1024.75 1024.60 1024.22 1024.17 1024.57 1024.53 1024.33 1024.10 1023.53 1023.30 1023.05 1022.73 1022.26 1021.92 1021.76 1021.57 1021.07 1020.14 1019.16 1018.27 1017.33 1016.46 1015.51 1014.55 1013.74 1012.93
1022.46 1023.16 1023.58 1023.91 1024.42 1024.07 1023.80 1024.25 1024.75 1024.91 1024.95 1025.14 1025.52 1025.68 1025.62 1025.58 1025.44 1025.11 1024.99 1024.68 1024.67 1024.62 1024.57 1024.50 1024.44 1023.99 1023.78 1023.55 1023.30 1022.82 1022.67 1022.46 1022.12 1021.35 1020.49 1019.73 1018.96 1017.78 1016.73 1015.39 1014.19 1013.01 1011.44
1022.93 1023.36 1023.58 1023.90 1024.05 1023.95 1023.93 1024.33 1024.74 1025.20 1025.24 1025.57 1025.93 1026.07 1025.95 1025.75 1025.60 1025.28 1025.02 1025.03 1024.75 1024.58 1024.68 1025.24 1024.79 1024.50 1024.27 1024.11 1023.86 1023.67 1023.60 1023.26 1022.63 1021.86 1020.97 1020.12 1019.11 1018.18 1017.07 1015.98 1014.42 1012.69 1010.85
1023.01 1023.28 1023.47 1023.54 1023.55 1024.17 1024.22 1024.63 1024.92 1025.28 1025.23 1025.66 1026.16 1026.12 1025.93 1025.84 1025.63 1024.88 1024.64 1024.47 1024.31 1024.47 1025.14 1025.60 1025.44 1025.16 1024.88 1024.63 1024.46 1024.32 1023.92 1023.63 1022.97 1022.41 1021.50 1020.42 1019.44 1018.48 1017.44 1016.43 1015.22 1013.41 1012.13
1023.24 1023.25 1023.32 1023.23 1023.51 1024.36 1024.75 1024.95 1025.04 1025.32 1025.37 1025.45 1025.60 1025.66 1025.81 1025.69 1025.39 1024.92 1024.68 1024.61 1024.67 1024.76 1026.05 1026.78 1026.47 1026.02 1025.61 1025.15 1024.89 1024.64 1024.33 1023.88 1023.19 1022.64 1021.86 1021.13 1020.09 1018.97 1017.73 1016.80 1015.76 1014.27 1012.48
1022.95 1023.26 1023.40 1023.67 1024.26 1024.74 1025.11 1025.31 1025.61 1025.70 1025.48 1025.69 1025.72 1025.78 1025.69 1025.72 1025.50 1025.03 1024.96 1024.99 1025.71 1025.93 1027.16 1027.32 1027.14 1026.70 1026.14 1025.64 1025.24 1024.98 1024.47 1023.99 1023.46 1022.78 1022.16 1021.42 1020.50 1019.44 1018.25 1016.96 1015.74 1014.36 1012.58
1023.27 1023.50 1023.92 1024.39 1024.62 1024.97 1025.34 1025.69 1025.99 1026.17 1026.37 1026.26 1026.12 1025.90 1025.81 1026.01 1025.74 1025.24 1025.46 1026.44 1027.00 1026.98 1027.45 1027.55 1027.25 1026.82 1026.29 1025.86 1025.50 1025.13 1024.63 1024.07 1023.51 1022.86 1022.31 1021.62 1020.69 1019.70 1018.33 1017.10 1015.86 1014.51 1012.86
1023.70 1024.14 1024.46 1024.75 1025.08 1025.40 1025.80 1026.15 1026.39 1026.55 1026.70 1026.76 1026.66 1026.47 1026.91 1026.50 1025.96 1025.94 1026.23 1027.15 1027.88 1027.91 1027.86 1027.69 1026.95 1026.59 1026.22 1025.87 1025.43 1024.98 1024.58 1024.01 1023.39 1022.82 1022.22 1021.50 1020.54 1019.63 1018.36 1017.26 1015.89 1014.47 1012.98
1024.25 1024.59 1024.75 1025.09 1025.58 1025.84 1026.05 1026.43 1026.70 1026.92 1027.00 1026.97 1027.13 1027.32 1027.28 1027.26 1027.02 1027.15 1027.05 1027.21 1027.48 1027.42 1027.02 1026.95 1026.52 1026.25 1025.94 1025.51 1025.08 1024.69 1024.25 1023.69 1023.08 1022.48 1021.81 1021.12 1020.26 1019.45 1018.40 1017.10 1015.70 1014.16 1012.48
1024.21 1024.80 1025.01 1025.40 1025.70 1026.01 1026.33 1026.73 1027.01 1027.12 1027.23 1027.41 1027.50 1027.30 1027.00 1027.18 1027.82 1027.72 1027.42 1027.02 1026.91 1026.75 1026.68 1026.44 1026.04 1025.82 1025.48 1025.03 1024.63 1024.25 1023.86 1023.26 1022.63 1021.96 1021.32 1020.56 1019.81 1018.97 1017.99 1016.82 1015.34 1013.73 1011.90
1024.37 1024.77 1025.29 1025.63 1025.83 1026.23 1026.57 1026.82 1027.07 1027.29 1027.48 1027.54 1027.48 1027.17 1026.88 1027.08 1027.14 1027.33 1026.95 1026.78 1026.48 1026.14 1026.04 1025.81 1025.48 1025.24 1024.72 1024.40 1023.99 1023.65 1023.26 1022.63 1021.95 1021.32 1020.67 1019.96 1019.21 1018.24 1017.24 1016.09 1014.54 1012.99 1011.15
1024.58 1024.87 1025.20 1025.65 1025.88 1026.10 1026.54 1026.97 1027.11 1027.18 1027.28 1027.54 1027.48 1027.28 1027.07 1027.11 1026.81 1026.54 1026.44 1026.20 1025.91 1025.36 1025.04 1025.11 1024.78 1024.18 1023.74 1023.48 1023.12 1022.84 1022.46 1021.74 1021.12 1020.56 1019.98 1019.30 1018.42 1017.40 1016.43 1015.23 1013.62 1011.79 1010.37
1024.47 1024.80 1025.32 1025.77 1026.11 1026.36 1026.59 1026.76 1026.91 1027.03 1027.14 1027.23 1027.10 1026.89 1026.66 1026.40 1026.03 1025.89 1025.66 1025.43 1025.01 1024.57 1024.29 1024.10 1023.75 1023.38 1022.88 1022.48 1022.07 1021.63 1021.19 1020.53 1020.07 1019.52 1019.13 1018.36 1017.45 1016.29 1015.23 1013.88 1012.31 1010.87 1009.76
1024.43 1024.92 1025.46 1025.73 1025.91 1025.99 1026.34 1026.60 1026.67 1026.71 1026.75 1026.47 1026.26 1026.18 1025.80 1025.51 1025.36 1025.04 1024.81 1024.54 1024.21 1023.89 1023.32 1023.01 1022.69 1022.25 1021.83 1021.37 1020.89 1020.37 1019.80 1019.13 1018.77 1018.21 1017.82 1016.99 1015.82 1014.71 1013.44 1012.46 1011.25 1010.13 1009.09
1024.17 1024.59 1025.04 1025.40 1025.97 1025.99 1026.04 1026.20 1026.29 1026.31 1026.08 1025.91 1025.54 1025.27 1025.04 1024.82 1024.60 1024.36 1024.06 1023.78 1023.49 1022.98 1022.59 1022.11 1021.58 1021.15 1020.71 1020.20 1019.44 1018.77 1018.18 1017.57 1016.91 1015.94 1015.21 1014.54 1013.86 1012.98 1012.16 1011.20 1010.21 1009.34 1008.31
Thickness
5535 5532 5530 5526 5521 5516 5512 5508 5505 5503 5501 5499 5499 5497 5497 5495 5491 5488 5487 5486 5482 5480 5477 5473 5473 5472 5473 5471 5467 5462 5463 5465 5473 5485 5485 5490 5492 5497 5503 5510 5516 5523 5528
5514 5511 5508 5504 5500 5498 5495 5492 5490 5487 5486 5486 5486 5484 5481 5476 5475 5474 5470 5467 5465 5464 5460 5459 5457 5455 5454 5451 5453 5450 5445 5443 5449 5467 5466 5471 5473 5476 5483 5492 5499 5506 5511
5495 5491 5489 5486 5484 5481 5480 5476 5474 5472 5470 5469 5468 5468 5463 5460 5458 5453 5452 5449 5447 5446 5442 5440 5438 5437 5433 5432 5434 5431 5431 5430 5430 5437 5450 5452 5455 5460 5470 5473 5478 5486 5490
5478 5474 5471 5470 5469 5466 5465 5463 5461 5460 5459 5455 5452 5452 5450 5446 5442 5438 5434 5432 5429 5427 5425 5422 5418 5418 5414 5416 5415 5414 5414 5414 5416 5418 5425 5430 5430 5437 5440 5449 5469 5467 5475
5463 5460 5457 5455 5452 5451 5450 5447 5444 5444 5441 5439 5437 5436 5434 5431 5424 5422 5417 5415 5412 5410 5407 5405 5402 5398 5397 5397 5396 5397 5398 5399 5397 5401 5404 5409 5409 5413 5412 5420 5428 5439 5455
5450 5446 5444 5442 5439 5436 5435 5433 5430 5427 5424 5421 5421 5418 5415 5412 5407 5406 5402 5398 5396 5391 5389 5387 5386 5383 5382 5381 5380 5379 5377 5380 5378 5379 5384 5389 5389 5387 5392 5392 5396 5410 5430
5437 5433 5430 5428 5423 5418 5417 5416 5413 5412 5409 5404 5402 5400 5396 5393 5391 5389 5386 5381 5379 5375 5373 5370 5370 5367 5366 5369 5368 5364 5361 5356 5352 5353 5353 5350 5358 5355 5361 5372 5375 5380 5392
5424 5419 5415 5412 5409 5404 5402 5401 5399 5396 5392 5386 5381 5379 5379 5376 5376 5373 5369 5365 5362 5357 5355 5353 5351 5349 5351 5354 5354 5350 5343 5338 5334 5328 5322 5323 5321 5328 5325 5335 5343 5358 5376
5411 5407 5403 5401 5395 5390 5388 5385 5382 5381 5378 5372 5365 5364 5362 5359 5357 5358 5353 5350 5346 5341 5338 5334 5333 5332 5333 5335 5331 5326 5319 5314 5308 5302 5297 5294 5294 5292 5288 5294 5299 5306 5326
5402 5396 5391 5386 5384 5378 5373 5371 5368 5366 5362 5355 5352 5350 5346 5341 5340 5340 5337 5333 5331 5325 5320 5316 5314 5311 5307 5304 5301 5296 5294 5292 5287 5285 5277 5271 5265 5263 5257 5247 5247 5251 5266
5386 5379 5375 5371 5365 5365 5358 5354 5353 5351 5345 5341 5339 5335 5330 5325 5321 5320 5319 5315 5312 5303 5300 5297 5290 5287 5281 5274 5269 5263 5261 5259 5252 5247 5243 5239 5236 5232 5229 5223 5216 5210 5220
5370 5364 5358 5354 5351 5345 5343 5343 5340 5332 5329 5325 5321 5318 5312 5307 5305 5303 5298 5296 5293 5283 5276 5271 5264 5259 5253 5247 5240 5234 5229 5222 5214 5210 5207 5203 5202 5201 5201 5201 5204 5204 5203
5353 5347 5343 5339 5333 5332 5332 5327 5320 5315 5311 5307 5301 5295 5292 5289 5286 5283 5278 5274 5267 5260 5253 5247 5240 5234 5227 5219 5210 5203 5195 5187 5180 5176 5176 5175 5174 5177 5179 5183 5188 5193 5203
5334 5331 5328 5325 5321 5320 5318 5312 5304 5296 5292 5288 5281 5274 5271 5269 5265 5262 5257 5250 5245 5240 5231 5220 5214 5207 5199 5190 5181 5171 5161 5156 5154 5154 5155 5156 5156 5156 5157 5158 5166 5176 5188
5320 5317 5315 5311 5309 5303 5300 5292 5286 5279 5276 5266 5259 5256 5249 5242 5243 5243 5238 5232 5227 5220 5206 5194 5186 5178 5170 5162 5153 5146 5141 5137 5136 5134 5134 5137 5138 5138 5137 5136 5137 5148 5153
5304 5302 5300 5299 5294 5285 5278 5272 5268 5262 5259 5254 5248 5243 5235 5230 5225 5221 5216 5209 5202 5193 5174 5162 5157 5152 5144 5139 5133 5128 5123 5120 5120 5117 5115 5112 5113 5114 5116 5114 5114 5119 5128
5290 5286 5281 5279 5272 5265 5259 5253 5244 5241 5239 5233 5228 5222 5216 5209 5203 5200 5194 5184 5172 5162 5144 5134 5129 5126 5122 5118 5114 5110 5108 5104 5101 5098 5095 5091 5090 5090 5090 5092 5094 5098 5107
5270 5267 5262 5256 5251 5245 5240 5233 5226 5218 5211 5207 5206 5201 5196 5187 5181 5176 5167 5152 5136 5130 5121 5113 5107 5105 5104 5101 5097 5094 5091 5087 5084 5080 5075 5071 5068 5068 5071 5073 5073 5074 5081
5252 5246 5241 5236 5230 5225 5218 5212 5206 5199 5193 5185 5180 5177 5169 5161 5155 5147 5138 5124 5113 5105 5102 5097 5093 5089 5087 5084 5082 5079 5074 5071 5067 5062 5057 5053 5051 5050 5052 5050 5053 5056 5058
5229 5224 5220 5215 5208 5203 5198 5191 5185 5179 5172 5165 5157 5148 5142 5133 5124 5114 5108 5101 5094 5090 5088 5083 5081 5076 5071 5070 5068 5063 5060 5055 5050 5046 5042 5038 5035 5032 5032 5033 5033 5037 5044
5212 5205 5201 5195 5189 5182 5176 5169 5163 5156 5149 5140 5134 5127 5127 5117 5102 5094 5091 5088 5083 5080 5076 5073 5071 5066 5060 5057 5053 5049 5044 5040 5035 5031 5027 5024 5021 5018 5016 5015 5017 5019 5025
5192 5186 5179 5174 5169 5162 5156 5150 5144 5135 5126 5118 5113 5106 5106 5093 5087 5082 5079 5075 5073 5070 5065 5063 5060 5055 5050 5046 5041 5036 5031 5026 5022 5018 5015 5011 5007 5005 5003 5002 5004 5005 5011
5171 5166 5161 5154 5149 5143 5134 5126 5119 5113 5107 5100 5092 5087 5081 5076 5073 5071 5067 5064 5061 5058 5055 5051 5048 5044 5039 5035 5028 5022 5017 5013 5010 5005 5002 4999 4995 4993 4990 4990 4991 4998 5000
5152 5147 5139 5131 5124 5117 5111 5105 5100 5096 5088 5082 5077 5074 5070 5066 5063 5059 5056 5054 5051 5049 5045 5041 5036 5032 5028 5023 5017 5011 5005 5002 4998 4993 4988 4987 4984 4982 4980 4981 4983 4986 4987
5128 5122 5116 5111 5105 5099 5092 5085 5081 5078 5074 5070 5067 5062 5059 5056 5052 5049 5047 5044 5041 5038 5034 5030 5025 5022 5017 5012 5007 5002 4997 4992 4986 4982 4978 4975 4975 4973 4974 4972 4973 4974 4975
5110 5104 5097 5091 5085 5080 5077 5073 5068 5064 5062 5058 5055 5052 5049 5045 5042 5039 5037 5034 5030 5027 5024 5019 5015 5010 5006 5001 4998 4994 4989 4984 4980 4977 4974 4971 4969 4967 4962 4962 4962 4962 4964